DW6193 Weather Reports


Display with metric or nautical units.
time (UTC)temp
F
wind
direction
speed
MPH
gust
MPH
rain 1hr
in
rain 24hr
in
rain mn
in
humidity
%
barometer
mb
20260505191553 62 141 0.0 3.0 0.00 0.00 0.00 1018.0
20260505191027 62 268 1.0 3.0 0.00 0.00 0.00 1018.0
20260505190531 63 49 1.0 3.0 0.00 0.00 0.00 1018.1
20260505190041 62 109 0.0 4.0 0.00 0.00 0.00 1018.2
20260505185527 60 0 1.0 4.0 0.00 0.00 0.00 1018.2
20260505185029 61 283 0.0 4.0 0.00 0.00 0.00 1018.0
20260505184538 62 55 0.0 2.0 0.00 0.00 0.00 1018.0
20260505184025 61 151 0.0 2.0 0.00 0.00 0.00 1018.1
20260505183526 61 255 0.0 2.0 0.00 0.00 0.00 1018.2
20260505183043 61 39 0.0 2.0 0.00 0.00 0.00 1018.1
20260505182527 62 0 0.0 2.0 0.00 0.00 0.00 1018.1
20260505182027 61 151 0.0 3.0 0.00 0.00 0.00 1017.9
20260505181538 59 158 0.0 4.0 0.00 0.00 0.00 1018.0
20260505181028 60 239 1.0 4.0 0.00 0.00 0.00 1018.0
20260505180526 62 243 0.0 2.0 0.00 0.00 0.00 1018.0
20260505180049 62 0 0.0 3.0 0.00 0.00 0.00 1018.0
20260505175526 61 210 0.0 3.0 0.00 0.00 0.00 1017.9
20260505175026 62 76 0.0 3.0 0.00 0.00 0.00 1017.9
20260505174540 62 0 0.0 3.0 0.00 0.00 0.00 1017.9
20260505174029 61 124 0.0 2.0 0.00 0.00 0.00 1017.9
20260505173531 60 0 0.0 2.0 0.00 0.00 0.00 1017.9
20260505173036 60 141 0.0 2.0 0.00 0.00 0.00 1017.9
20260505172526 59 0 0.0 2.0 0.00 0.00 0.00 1017.8
20260505172027 58 268 0.0 3.0 0.00 0.00 0.00 1017.8
20260505171538 58 227 0.0 3.0 0.00 0.00 0.00 1017.8
20260505171027 57 305 0.0 2.0 0.00 0.00 0.00 1017.8
20260505170525 57 201 1.0 4.0 0.00 0.00 0.00 1017.8
20260505170037 56 227 1.0 4.0 0.00 0.00 0.00 1017.7
20260505165523 56 252 1.0 4.0 0.00 0.00 0.00 1017.7
20260505165023 58 295 0.0 4.0 0.00 0.00 0.00 1017.8
20260505164543 58 302 0.0 2.0 0.00 0.00 0.00 1017.7
20260505164024 58 0 0.0 3.0 0.00 0.00 0.00 1017.7
20260505163527 57 183 1.0 4.0 0.00 0.00 0.00 1017.7
20260505163037 57 230 0.0 4.0 0.00 0.00 0.00 1017.5
20260505162526 56 248 1.0 4.0 0.00 0.00 0.00 1017.5
20260505162028 56 183 1.0 4.0 0.00 0.00 0.00 1017.5
20260505161537 56 268 0.0 3.0 0.00 0.00 0.00 1017.5
20260505161027 56 0 0.0 5.0 0.00 0.00 0.00 1017.4
20260505160529 55 201 1.0 7.0 0.00 0.00 0.00 1017.5
20260505153036 53 286 4.0 9.0 0.00 0.00 0.00 1017.3
20260505152524 52 264 4.0 9.0 0.00 0.00 0.00 1017.3
20260505152028 53 282 4.0 9.0 0.00 0.00 0.00 1017.4
20260505151540 53 268 6.0 9.0 0.00 0.00 0.00 1017.3
20260505151027 53 309 5.0 8.0 0.00 0.00 0.00 1017.3
20260505150527 53 278 5.0 8.0 0.00 0.00 0.00 1017.3
20260505140527 51 283 4.0 7.0 0.00 0.00 0.00 1016.5
20260505125028 52 243 3.0 8.0 0.00 0.00 0.00 1016.1
20260505124559 52 261 4.0 8.0 0.00 0.00 0.00 1016.2
20260505124025 52 236 4.0 8.0 0.00 0.00 0.00 1016.1
20260505123526 53 285 2.0 8.0 0.00 0.00 0.00 1016.0
20260505123049 53 279 4.0 9.0 0.00 0.00 0.00 1016.2
20260505122526 53 280 4.0 9.0 0.00 0.00 0.00 1016.1
20260505122027 53 261 2.0 7.0 0.00 0.00 0.00 1016.1
20260505121607 53 268 3.0 6.0 0.00 0.00 0.00 1016.2
20260505121027 54 286 1.0 4.0 0.00 0.00 0.00 1016.1
20260505120526 54 0 0.0 4.0 0.00 0.00 0.00 1016.1
20260505120037 54 255 1.0 4.0 0.00 0.00 0.00 1016.1
20260505115526 54 277 1.0 6.0 0.00 0.00 0.00 1016.0
20260505115026 54 268 1.0 6.0 0.00 0.00 0.00 1016.0
20260505114536 54 268 1.0 5.0 0.00 0.00 0.00 1016.1
20260505114027 53 290 3.0 5.0 0.00 0.00 0.00 1016.1
20260505113526 54 259 2.0 4.0 0.00 0.00 0.00 1016.1
20260505113046 54 286 0.0 5.0 0.00 0.00 0.00 1016.1
20260505112530 54 283 1.0 5.0 0.00 0.00 0.00 1016.0
20260505112024 54 302 2.0 5.0 0.00 0.00 0.00 1016.0
20260505111540 54 0 1.0 6.0 0.00 0.00 0.00 1016.1
20260505111026 54 243 2.0 6.0 0.00 0.00 0.00 1016.0
20260505110526 54 227 1.0 4.0 0.00 0.00 0.00 1015.9
20260505102026 54 218 5.0 9.0 0.00 0.00 0.00 1015.6
20260505101541 54 292 4.0 8.0 0.00 0.00 0.00 1015.5
20260505101026 54 221 3.0 8.0 0.00 0.00 0.00 1015.7
20260505100527 55 254 3.0 8.0 0.00 0.00 0.00 1015.6
20260505100049 55 292 3.0 6.0 0.00 0.00 0.00 1015.6
20260505095525 55 172 2.0 6.0 0.00 0.00 0.00 1015.6
20260505095025 55 200 3.0 6.0 0.00 0.00 0.00 1015.5
20260505094542 55 268 2.0 6.0 0.00 0.00 0.00 1015.6
20260505094027 55 213 2.0 7.0 0.00 0.00 0.00 1015.4
20260505093526 55 243 1.0 8.0 0.00 0.00 0.00 1015.4
20260505093038 55 268 4.0 8.0 0.00 0.00 0.00 1015.4
20260505092527 55 268 2.0 8.0 0.00 0.00 0.00 1015.4
20260505092026 55 219 3.0 8.0 0.00 0.00 0.00 1015.3
20260505091549 55 274 3.0 9.0 0.00 0.00 0.00 1015.4
20260505091025 55 276 3.0 10.0 0.00 0.00 0.00 1015.2
20260505090526 55 183 4.0 11.0 0.00 0.00 0.00 1015.2
20260505090055 55 290 4.0 11.0 0.00 0.00 0.00 1015.2
20260505085526 55 255 6.0 11.0 0.00 0.00 0.00 1015.1
20260505085030 55 236 4.0 12.0 0.00 0.00 0.00 1015.2
20260505084538 55 280 6.0 12.0 0.00 0.00 0.00 1015.2
20260505084024 55 283 5.0 11.0 0.00 0.00 0.00 1015.1
20260505083525 56 286 4.0 11.0 0.00 0.00 0.00 1015.1
20260505083048 56 297 5.0 11.0 0.00 0.00 0.00 1015.2
20260505082527 56 267 5.0 11.0 0.00 0.00 0.00 1015.1
20260505082027 56 259 5.0 14.0 0.00 0.00 0.00 1015.0
20260505081543 56 290 4.0 14.0 0.00 0.00 0.00 1014.9
20260505081027 56 283 6.0 14.0 0.00 0.00 0.00 1015.0
20260505080531 56 173 4.0 13.0 0.00 0.00 0.00 1014.9
20260505080045 56 273 5.0 13.0 0.00 0.00 0.00 1014.9
20260505075528 56 292 5.0 14.0 0.00 0.00 0.00 1014.9
20260505075029 57 268 7.0 14.0 0.00 0.00 0.00 1014.8
20260505074539 57 298 4.0 12.0 0.00 0.00 0.00 1014.7
20260505074029 57 267 5.0 12.0 0.00 0.00 0.00 1014.8
20260505073524 58 290 4.0 12.0 0.00 0.00 0.00 1014.7
20260505073053 58 297 5.0 12.0 0.00 0.00 0.00 1014.8
20260505072526 58 286 5.0 10.0 0.00 0.00 0.00 1014.5
20260505072027 58 291 4.0 13.0 0.00 0.00 0.00 1014.6
20260505071543 58 298 5.0 13.0 0.00 0.00 0.00 1014.5
20260505071026 59 305 3.0 10.0 0.00 0.00 0.00 1014.4
20260505070527 59 276 4.0 10.0 0.00 0.00 0.00 1014.3
20260505070040 59 286 2.0 8.0 0.00 0.00 0.00 1014.4
20260505065527 60 274 1.0 10.0 0.00 0.00 0.00 1014.3
20260505065026 60 274 1.0 10.0 0.00 0.00 0.00 1014.2
20260505064536 60 301 3.0 9.0 0.00 0.00 0.00 1014.0
20260505064027 61 295 2.0 10.0 0.00 0.00 0.00 1013.9
20260505063526 62 286 3.0 10.0 0.00 0.00 0.00 1013.9
20260505063046 63 252 1.0 6.0 0.00 0.00 0.00 1013.8
20260505062526 62 201 1.0 7.0 0.00 0.00 0.00 1013.8
20260505062031 62 276 2.0 10.0 0.00 0.00 0.00 1013.8
20260505061546 62 268 3.0 10.0 0.00 0.00 0.00 1013.7
20260505061031 62 288 5.0 13.0 0.00 0.00 0.00 1013.5
20260505060527 63 284 5.0 14.0 0.00 0.00 0.00 1013.7
20260505060039 63 262 6.0 14.0 0.00 0.00 0.00 1013.7
20260505055528 63 284 8.0 14.0 0.00 0.00 0.00 1013.5
20260505055027 63 103 7.0 14.0 0.00 0.00 0.00 1013.5
20260505054609 63 283 7.0 16.0 0.00 0.00 0.00 1013.3
20260505054028 64 290 10.0 16.0 0.00 0.00 0.00 1013.3
20260505053528 64 285 9.0 17.0 0.00 0.00 0.00 1013.3
20260505053049 64 277 7.0 17.0 0.00 0.00 0.00 1013.2
20260505052527 64 303 9.0 16.0 0.00 0.00 0.00 1013.2
20260505052028 64 284 8.0 13.0 0.00 0.00 0.00 1013.3
20260505051542 65 283 7.0 13.0 0.00 0.00 0.00 1013.3
20260505051027 65 286 7.0 12.0 0.00 0.00 0.00 1013.2
20260505050528 65 273 6.0 12.0 0.00 0.00 0.00 1013.2
20260505041548 66 281 5.0 13.0 0.00 0.00 0.00 1012.4
20260505041026 66 277 5.0 13.0 0.00 0.00 0.00 1012.4
20260505040527 66 268 5.0 13.0 0.00 0.00 0.00 1012.4
20260505040042 66 245 7.0 13.0 0.00 0.00 0.00 1012.4
20260505035526 66 247 7.0 12.0 0.00 0.00 0.00 1012.4
20260505035026 66 268 7.0 12.0 0.00 0.00 0.00 1012.3
20260505034537 66 305 8.0 13.0 0.00 0.00 0.00 1012.2
20260505034027 66 265 7.0 13.0 0.00 0.00 0.00 1012.0
20260505033527 66 272 7.0 13.0 0.00 0.00 0.00 1012.1
20260505033037 66 275 8.0 13.0 0.00 0.00 0.00 1012.1
20260505032527 66 234 7.0 12.0 0.00 0.00 0.00 1012.0
20260505032026 66 276 7.0 12.0 0.00 0.00 0.00 1012.0
20260505031541 66 286 8.0 13.0 0.00 0.00 0.00 1011.9
20260505031028 67 240 7.0 13.0 0.00 0.00 0.00 1011.8
20260505030527 67 241 6.0 12.0 0.00 0.00 0.00 1011.8
20260505030053 67 288 7.0 12.0 0.00 0.00 0.00 1011.7
20260505025528 67 278 6.0 12.0 0.00 0.00 0.00 1011.7
20260505025026 67 288 7.0 12.0 0.00 0.00 0.00 1011.7
20260505024537 68 286 6.0 16.0 0.00 0.00 0.00 1011.7
20260505024026 68 284 8.0 16.0 0.00 0.00 0.00 1011.6
20260505023528 68 265 7.0 14.0 0.00 0.00 0.00 1011.5
20260505023035 68 288 6.0 12.0 0.00 0.00 0.00 1011.5
20260505022526 68 291 7.0 13.0 0.00 0.00 0.00 1011.5
20260505022027 68 285 7.0 13.0 0.00 0.00 0.00 1011.5
20260505021549 69 290 8.0 14.0 0.00 0.00 0.00 1011.5
20260505021026 69 281 7.0 14.0 0.00 0.00 0.00 1011.4
20260505020526 69 272 8.0 14.0 0.00 0.00 0.00 1011.5
20260505020049 69 244 5.0 11.0 0.00 0.00 0.00 1011.6
20260505015527 70 292 4.0 11.0 0.00 0.00 0.00 1011.5
20260505015026 70 183 4.0 14.0 0.00 0.00 0.00 1011.3
20260505014537 69 279 7.0 14.0 0.00 0.00 0.00 1011.4
20260505014026 70 288 5.0 11.0 0.00 0.00 0.00 1011.5
20260505013526 72 231 3.0 11.0 0.00 0.00 0.00 1011.4
20260505013043 70 255 4.0 11.0 0.00 0.00 0.00 1011.6
20260505012526 72 272 4.0 14.0 0.00 0.00 0.00 1011.6
20260505012026 72 257 6.0 14.0 0.00 0.00 0.00 1011.7
20260505011541 74 290 2.0 11.0 0.00 0.00 0.00 1011.8
20260505011026 76 107 2.0 11.0 0.00 0.00 0.00 1011.8
20260505010525 81 334 1.0 10.0 0.00 0.00 0.00 1011.8
20260505005527 79 298 5.0 11.0 0.00 0.00 0.00 1011.8
20260505005031 84 268 2.0 8.0 0.00 0.00 0.00 1011.8
20260505004536 83 333 2.0 12.0 0.00 0.00 0.00 1012.0
20260505004027 82 290 3.0 12.0 0.00 0.00 0.00 1012.1
20260505003527 83 243 2.0 8.0 0.00 0.00 0.00 1012.2
20260505003046 84 255 2.0 8.0 0.00 0.00 0.00 1012.1
20260505002529 87 141 2.0 7.0 0.00 0.00 0.00 1012.1
20260505002026 88 99 1.0 6.0 0.00 0.00 0.00 1012.2
20260505001539 88 227 2.0 8.0 0.00 0.00 0.00 1012.2
20260505001025 86 311 1.0 8.0 0.00 0.00 0.00 1012.2
20260505000528 84 0 2.0 8.0 0.00 0.00 0.00 1012.1
20260505000051 87 278 1.0 6.0 0.00 0.00 0.00 1012.2
20260504235527 88 68 1.0 5.0 0.00 0.00 0.00 1012.3
20260504235025 89 0 1.0 5.0 0.00 0.00 0.00 1012.3
20260504234539 87 131 2.0 5.0 0.00 0.00 0.00 1012.3
20260504234026 88 0 1.0 6.0 0.00 0.00 0.00 1012.3
20260504233526 87 141 1.0 6.0 0.00 0.00 0.00 1012.3
20260504233044 86 285 1.0 6.0 0.00 0.00 0.00 1012.4
20260504232528 85 317 2.0 10.0 0.00 0.00 0.00 1012.2
20260504232026 85 183 3.0 10.0 0.00 0.00 0.00 1012.3
20260504231537 86 259 1.0 8.0 0.00 0.00 0.00 1012.3
20260504231027 87 141 1.0 4.0 0.00 0.00 0.00 1012.3
20260504230529 85 0 1.0 13.0 0.00 0.00 0.00 1012.5
20260504230044 82 99 4.0 13.0 0.00 0.00 0.00 1012.5
20260504225527 86 51 1.0 6.0 0.00 0.00 0.00 1012.4
20260504225027 85 55 2.0 6.0 0.00 0.00 0.00 1012.5
20260504224550 84 141 2.0 6.0 0.00 0.00 0.00 1012.4
20260504224025 85 0 1.0 6.0 0.00 0.00 0.00 1012.6
20260504223527 85 39 2.0 6.0 0.00 0.00 0.00 1012.7
20260504223039 84 285 1.0 7.0 0.00 0.00 0.00 1012.7
20260504222527 81 216 2.0 7.0 0.00 0.00 0.00 1012.7
20260504222028 84 55 1.0 7.0 0.00 0.00 0.00 1012.7
20260504221539 81 162 2.0 7.0 0.00 0.00 0.00 1012.9
20260504221028 82 120 1.0 6.0 0.00 0.00 0.00 1012.9
20260504220525 83 259 1.0 10.0 0.00 0.00 0.00 1013.0
20260504220043 82 283 2.0 10.0 0.00 0.00 0.00 1013.0
20260504215531 81 120 1.0 6.0 0.00 0.00 0.00 1013.0
20260504215026 80 268 1.0 8.0 0.00 0.00 0.00 1013.2
20260504214543 79 285 1.0 10.0 0.00 0.00 0.00 1013.2
20260504214027 78 24 2.0 11.0 0.00 0.00 0.00 1013.3
20260504213526 74 232 4.0 11.0 0.00 0.00 0.00 1013.2
20260504213042 76 252 3.0 10.0 0.00 0.00 0.00 1013.5
20260504212524 79 255 1.0 10.0 0.00 0.00 0.00 1013.5
20260504212027 80 243 1.0 10.0 0.00 0.00 0.00 1013.5
20260504211541 78 183 1.0 11.0 0.00 0.00 0.00 1013.5
20260504211027 76 295 2.0 11.0 0.00 0.00 0.00 1013.7
20260504210530 79 39 2.0 6.0 0.00 0.00 0.00 1013.7
20260504210055 79 124 2.0 7.0 0.00 0.00 0.00 1013.8
20260504205528 75 211 3.0 7.0 0.00 0.00 0.00 1013.7
20260504205031 75 268 1.0 6.0 0.00 0.00 0.00 1014.0
20260504204545 73 286 2.0 8.0 0.00 0.00 0.00 1014.0
20260504204028 72 22 1.0 8.0 0.00 0.00 0.00 1014.0
20260504203527 72 0 2.0 8.0 0.00 0.00 0.00 1013.9
20260504203039 76 201 1.0 7.0 0.00 0.00 0.00 1014.0
20260504202527 75 164 1.0 7.0 0.00 0.00 0.00 1014.1
20260504202027 75 99 2.0 7.0 0.00 0.00 0.00 1014.1
20260504201538 76 153 1.0 8.0 0.00 0.00 0.00 1014.1
20260504201029 74 43 2.0 8.0 0.00 0.00 0.00 1014.2
20260504200530 74 307 1.0 6.0 0.00 0.00 0.00 1014.2
20260504200052 75 284 1.0 6.0 0.00 0.00 0.00 1014.2
20260504195526 74 132 2.0 6.0 0.00 0.00 0.00 1014.2
20260504195027 73 103 1.0 5.0 0.00 0.00 0.00 1014.3
20260504194537 75 319 1.0 9.0 0.00 0.00 0.00 1014.3
20260504194028 74 139 1.0 9.0 0.00 0.00 0.00 1014.3
20260504193528 73 136 1.0 5.0 0.00 0.00 0.00 1014.3
20260504193042 73 268 1.0 8.0 0.00 0.00 0.00 1014.3
20260504192524 73 334 2.0 8.0 0.00 0.00 0.00 1014.2
20260504192030 74 268 1.0 5.0 0.00 0.00 0.00 1014.4